Regional Weather Roundup
Issued by NWS

Home | Current Version | Previous Version | Text Only | Print | Product List | Glossary On
Versions: 1 2 3 4 5 6 7 8 9 10 11 12 13 14 15 16 17 18 19 20 21 22 23 24 25 26 27 28 29 30 31 32 33 34 35 36 37 38 39 40 41 42 43 44 45 46 47 48 49 50
713
ASUS43 KMPX 220101
RWRMN
WEATHER ROUNDUP FOR MINNESOTA
NATIONAL WEATHER SERVICE TWIN CITIES/CHANHASSEN MN
800 PM CDT SAT OCT 21 2017


NOTE: "FAIR" INDICATES FEW OR NO CLOUDS BELOW 12,000 FEET WITH NO
SIGNIFICANT WEATHER AND/OR OBSTRUCTIONS TO VISIBILITY. N/A MEANS
CURRENT SKY AND/OR WEATHER CONDITIONS ARE NOT AVAILABLE.

MNZ060>063-068>070-220200-
   Twin Cities Metro

CITY           SKY/WX    TMP DP  RH WIND       PRES   REMARKS
TWIN CITIES    CLOUDY    57  53  86 W16       29.74R
ST PAUL        CLOUDY    59  53  80 W18       29.74R
CRYSTAL        LGT RAIN  56  50  80 W13       29.73R
BLAINE         LGT RAIN  59  55  88 W10G18    29.73R
LAKEVILLE      CLOUDY    55  52  88 W9G17     29.75R
EDEN PRAIRIE   CLOUDY    57  52  83 W7        29.74R
SOUTH ST PAUL  CLOUDY    58  57  96 W10G21    29.73R
LAKE ELMO      DRIZZLE   66  61  82 S13G22    29.72R
$$
MNZ001>005-007-008-013>017-022>024-027-028-220200-
   Northwest Minnesota

CITY           SKY/WX    TMP DP  RH WIND       PRES   REMARKS
BEMIDJI        MOCLDY    51  48  89 SW5       29.62R
HALLOCK        CLOUDY    55  43  62 SW8       29.55R
ROSEAU         CLOUDY    55  46  71 W12       29.53S
WARROAD        CLOUDY    55  46  71 SW14      29.54R
CROOKSTON      CLOUDY    55  43  62 W15       29.62R
FOSSTON        PTCLDY    48  41  76 SW8       29.63R
DETROIT LAKES  CLEAR     50  43  76 W12       29.68R
MOORHEAD       CLOUDY    52  43  71 W14G23    29.70R
PARK RAPIDS    PTCLDY    49  46  90 SW6       29.65R
MAHNOMEN       FAIR      48  43  81 SW10      29.64R
$$
MNZ006-009>011-018-025>026-220200-
   North Central Minnesota

CITY           SKY/WX    TMP DP  RH WIND       PRES   REMARKS
BAUDETTE       CLOUDY    55  52  89 SW6       29.52F
FLAG ISLAND    CLOUDY    54  48  82 S5        29.49S
INTL FALLS     LGT RAIN  62  59  90 SE7       29.55S
WASKISH        CLOUDY    52  50  93 SW6       29.58R
BIG FORK       RAIN      63  61  94 S7        29.58R
LONGVILLE      CLOUDY    52  52 100 SW6       29.65R
GRAND RAPIDS   LGT RAIN  62  59  90 W16G23    29.64R
CRANE LAKE     CLOUDY    59  59 100 S5        29.62S FOG
ORR            CLOUDY    61  57  88 S12G17    29.58R
COOK           CLOUDY    63  61  94 S9G17     29.62S
WALKER         CLOUDY    51  48  88 SW8       29.64R
$$
MNZ012-019>021-037-220200-
   Northeast Minnesota

CITY           SKY/WX    TMP DP  RH WIND       PRES   REMARKS
DULUTH         CLOUDY    62  60  93 S14       29.67S
ELY            CLOUDY    61  59  94 S14G20    29.65F
HIBBING        LGT RAIN  62  59  90 S12G22    29.63R
EVELETH        CLOUDY    63  62  98 S15G22    29.65S
DULUTH HARBOR  CLOUDY    66  61  82 S14       29.66S
TWO HARBORS    CLOUDY    64  61  88 S9        29.66S
SILVER BAY     CLOUDY    61  59  94 S6        29.67F
GRAND MARAIS     N/A     51  51 100 NE6       29.72S
G MARAIS ARPRT CLOUDY    55  52  88 S7        29.74F
$$
MNZ029>031-032-039>041-046>048-054>057-064-220200-
   West Central Minnesota

CITY           SKY/WX    TMP DP  RH WIND       PRES   REMARKS
FERGUS FALLS   MOCLDY    52  43  71 W16G23    29.74R
WHEATON        MOCLDY    50  41  71 SW12G17   29.79R
MORRIS         MOCLDY    52  43  71 W12       29.77R
ALEXANDRIA     CLEAR     51  43  74 W12       29.75R
ELBOW LAKE     MOCLDY    50  43  76 SW17G25   29.76R
WADENA         CLEAR     50  45  81 SW7       29.68R
GLENWOOD       CLOUDY    50  45  81 W14       29.75R
APPLETON       CLEAR     52  43  71 W13       29.80R
BENSON         CLOUDY    52  43  71 W16       29.79R
ORTONVILLE     CLEAR     48  41  76 W6        29.80R
MADISON        MOCLDY    54  43  66 W12       29.82R
WILLMAR        FAIR      54  46  76 W12       29.78R
$$
MNZ033>034-036-042>043-049>051-058-059-220200-
   Central Minnesota

CITY           SKY/WX    TMP DP  RH WIND       PRES   REMARKS
ST CLOUD       CLOUDY    54  51  90 W7        29.72R
SAUK CENTRE    FAIR      51  44  79 W10       29.72R
PAYNESVILLE    CLOUDY    53  47  78 W14       29.74R
AITKIN         HVY RAIN  52  48  87 W9        29.66R
PINE RIVER     CLOUDY    50  46  87 CALM      29.70R
BRAINERD       CLOUDY   N/A N/A N/A S7        29.69R
STAPLES        CLOUDY    52  48  87 SW5       29.69R
LONG PRAIRIE   MOCLDY    52  45  76 SW8       29.71R
LITTLE FALLS   CLOUDY    52  45  76 SW3       29.70R
LITCHFIELD     CLOUDY    55  50  82 W6        29.75R
BUFFALO        CLOUDY    55  50  83 SW3       29.75R
MAPLE LAKE     CLOUDY    55  52  88 SW5       29.75R
HUTCHINSON     CLOUDY    55  50  83 SW6       29.77R
$$
MNZ037-044-045-052-053-220200-
   East Central Minnesota

CITY           SKY/WX    TMP DP  RH WIND       PRES   REMARKS
PRINCETON      CLOUDY    55  54  94 SW3       29.73R
MORA           LGT RAIN  55  52  88 W14G23    29.70R
CAMBRIDGE      LGT RAIN  57  55  94 W13G21    29.72R
RUSH CITY      CLOUDY    64  60  84 S10       29.67S
MOOSE LAKE     LGT RAIN  63  59  88 S8        29.64R
HINCKLEY       CLOUDY    64  61  88 S10G18    29.66S
CLOQUET        CLOUDY    63  57  82 S9        29.66S
MCGREGOR       CLOUDY    63  61  94 S12       29.64S
$$
MNZ071>073-080-081-089-090-097-098-220200-
   Southwest Minnesota

CITY           SKY/WX    TMP DP  RH WIND       PRES   REMARKS
MONTEVIDEO     CLOUDY    52  43  71 NW13G18   29.81R
GRANITE FALLS  CLOUDY    53  44  72 W14       29.83R
CANBY          CLOUDY    52  42  69 NW9G16    29.83R
MARSHALL       MOCLDY    51  42  71 W14       29.84R
REDWOOD FALLS  CLOUDY    54  44  69 W18G24    29.79R
OLIVIA         CLOUDY    54  46  76 W15       29.77R
PIPESTONE      MOCLDY    48  39  71 W9        29.87R
WORTHINGTON    PTCLDY    50  42  74 W14       29.86R
JACKSON        CLOUDY    52  43  71 W14       29.83R
TRACY          MOCLDY    53  44  71 W9        29.84R
SLAYTON        PTCLDY    50  41  72 W17G28    29.86R
$$
MNZ065>067-074>077-082>085-091>093-220200-
   South Central Minnesota

CITY           SKY/WX    TMP DP  RH WIND       PRES   REMARKS
MANKATO        LGT RAIN  55  51  86 W6        29.79R
NEW ULM          N/A     54  46  76 W5        29.78R
ST JAMES       CLOUDY    55  45  67 W10       29.80R
FAIRMONT       CLOUDY    55  47  74 W8        29.81R
GLENCOE        CLOUDY    56  52  85 SW3       29.76R
FARIBAULT      CLOUDY    57  54  88 W5        29.77R
OWATONNA       CLOUDY    55  54  94 W8G16     29.77R
WASECA         CLOUDY    55  52  88 W12G18    29.80R
$$
MNZ078>079-086>088-094>096-220200-
   Southeast Minnesota

CITY           SKY/WX    TMP DP  RH WIND       PRES   REMARKS
ROCHESTER      CLOUDY    67  60  78 S15       29.76S
RED WING       CLOUDY    70  57  64 S10G23    29.71S
STANTON        CLOUDY    58  52  81 W12G21    29.75R
DODGE CENTER   TSTM      64  59  82 SW21G26   29.77R
WINONA         CLOUDY    70  59  68 S3        29.76S
AUSTIN         TSTM      61  57  88 S14G20    29.76R
PRESTON        CLOUDY    67  59  73 S14G21    29.77F
$$
ABBREVIATIONS USED IN REMARKS
   TC - TEMPERATURES IN CELSIUS
  WCI - WIND CHILL INDEX
   HX - HEAT INDEX
  VSB - VISIBILITY
$$




USA.gov is the U.S. government's official web portal to all federal, state and local government web resources and services.